Find PVCC

NORAD ID: 58025 Int'l Des: 2023-155 Owner: ESA Country: I-ESA operational
LEOCIRCULARRETROGRADESSO

Live Position

Loading 3D Globe...

About PVCC

Description loading...

Upcoming Passes

Passes for default location (London). Set your location on the main map for personalized predictions.

Altitude History

Loading altitude history...

Two-Line Element Set

1 58025U 23155K 26107.26256825 .00003672 00000-0 19888-3 0 9993
2 58025 97.5722 183.9989 0003887 4.2396 355.8868 15.15243228138751
Epoch: Apr 17, 2026 • Age: 9 hours

Current Status

Altitude 524.7 km
Velocity 7.60 km/s
Sub-Earth Point -17.58°S, 105°E
Launch Date Oct 9, 2023
Age 2.5 years
Type other

Technical Details

Classification Payload
Mass 20.00 kg
Dry Mass 20.00 kg
Total Mass 20.00 kg
Length 0.30 m
Diameter 0.20 m
Span 0.80 m
Shape Box + 4 pan
Manufacturer ASPLB
Bus Type Cubesat 12U
Phase Status In Orbit
Owner/State ESA/I-ESA

Most Searched